Location: Unspecified
(0.0000°N, 0.0000°E)
Time: 18:24:02
(UTC+00:00)

STARLINK 1022 - Pass Details

Date: 23 January 2020
Orbit: 548 x 551 km, 53.0° (Epoch: 17 January)

Event Time Altitude Azimuth Distance (km) Brightness Sun altitude
Exits shadow 04:40:10 66° 251° (WSW) 596 3.5 -21.5°
Maximum altitude 04:40:36 75° 304° (NW) 567 3.4 -21.4°
Drops below altitude 10° 04:44:42 10° 29° (NNE) 1,807 6.3 -20.4°
Sets 04:46:55 0° 31° (NNE) 2,697 7.3 -19.9°
